Location: Newark
(43.0000°N, 1.6781°W)
Time: 09:34:46
(UTC+00:00)

AO-7 - Pass Details

Date: 09 December 2022
Orbit: 1440 x 1459 km, 101.9° (Epoch: 28 January)

Event Time Altitude Azimuth Distance (km) Brightness Sun altitude
Rises 04:36:09 0° 20° (NNE) 4,545 ? -30.2°
Reaches altitude 10° 04:38:59 10° 23° (NNE) 3,566 ? -29.7°
Maximum altitude 04:47:14 64° 105° (ESE) 1,576 ? -28.2°
Drops below altitude 10° 04:55:28 10° 186° (S) 3,559 ? -26.7°
Sets 04:58:16 0° 189° (S) 4,537 ? -26.2°
